Bethalto, IL

11:54 PM CST on February 10, 2016 (GMT -0600)
Saint Louis Regional

Weather History for KALN - January, 2014

Change the Weather History Date:

Sunday, January 5, 2014

  Actual Average (KSTL) Record (KSTL)
Temperature  
Mean Temperature 17 °F 32 °F  
Max Temperature 32 °F 40 °F 66 °F (2012)
Min Temperature 1 °F 24 °F -22 °F (1884)
Degree Days  
Heating Degree Days 48 33  
Month to date heating degree days 165  
Since 1 July heating degree days 1930  
Cooling Degree Days 0 0  
Month to date cooling degree days 0  
Year to date cooling degree days 0  
Moisture  
Dew Point 13 °F    
Average Humidity 80    
Maximum Humidity 97    
Minimum Humidity 48    
Precipitation  
Precipitation 0.00 in 0.08 in 1.58 in (2005)
Month to date precipitation 0.44  
Year to date precipitation 0.44  
Snow  
Snow 0.00 in 0.20 in 10.80 in (2014)
Month to date snowfall 0.9  
Since 1 July snowfall 6.0  
Snow Depth -    
Sea Level Pressure  
Sea Level Pressure 30.04 in    
Wind  
Wind Speed 9 mph (NW)    
Max Wind Speed 23 mph    
Max Gust Speed 38 mph    
Visibility 4 miles    
Events Snow    
T = Trace of Precipitation, MM = Missing Value Source: NWS Daily Summary

Daily Weather History Graph

Daily Weather History Graph

Search for Another Location

Airport or City:

Trip Planner

Search our weather history database for the weather conditions in past years. The results will help you decide how hot, cold, wet, or windy it might be!

Date:

Astronomy

Jan. 05, 2014 Rise Set
Actual Time 7:19 AM CST 4:52 PM CST
Civil Twilight 6:49 AM CST 5:22 PM CST
Nautical Twilight 6:16 AM CST 5:55 PM CST
Astronomical Twilight 5:43 AM CST 6:27 PM CST
Moon 10:03 AM CST (1/5) 10:17 PM CST (1/5)
Length of Visible Light 10h 32m
Length of Day
9h 33m
Waxing Crescent, 25% of the Moon is Illuminated
Jan 5
Waxing Crescent
Jan 7
First Quarter
Jan 15
Full
Jan 23
Last Quarter
Jan 30
New

Hourly Weather History & Observations

Time (CST) Temp. Windchill Dew Point Humidity Pressure Visibility Wind Dir Wind Speed Gust Speed Precip Events Conditions
12:15 AM 32.9 °F - 32.0 °F 96% 29.97 in 7.0 mi Calm Calm - N/A   Unknown
12:35 AM 32.9 °F - 32.0 °F 96% 29.96 in 5.0 mi Calm Calm - N/A   Mist
12:55 AM 32.7 °F - 32.0 °F 97% 29.96 in 4.0 mi Calm Calm - N/A   Mist
1:15 AM 32.0 °F 26.4 °F 30.6 °F 94% 29.96 in 5.0 mi NNW 5.8 mph - N/A   Mist
1:35 AM 31.1 °F 24.5 °F 29.5 °F 94% 29.97 in 5.0 mi NNW 6.9 mph - N/A   Mist
1:55 AM 30.2 °F 22.6 °F 28.8 °F 94% 29.97 in 3.0 mi NNW 8.1 mph - N/A   Unknown
2:15 AM 29.3 °F 23.2 °F 28.0 °F 95% 29.97 in 3.0 mi NNW 5.8 mph - N/A   Unknown
2:35 AM 28.8 °F 21.7 °F 27.5 °F 95% 29.96 in 2.5 mi NNW 6.9 mph - N/A   Unknown
2:55 AM 28.0 °F 20.8 °F 26.6 °F 94% 29.96 in 1.8 mi NNW 6.9 mph - N/A Snow Light Snow
3:15 AM 27.5 °F 19.3 °F 26.2 °F 95% 29.95 in 3.0 mi NNW 8.1 mph - N/A Snow Light Snow
3:35 AM 27.3 °F 19.9 °F 26.1 °F 95% 29.94 in 3.0 mi NNW 6.9 mph - N/A Snow Light Snow
3:55 AM 27.1 °F 18.2 °F 25.7 °F 94% 29.93 in 4.0 mi NNW 9.2 mph - N/A Snow Light Snow
4:15 AM 27.0 °F 20.5 °F 25.3 °F 94% 29.93 in 3.0 mi NNW 5.8 mph - N/A Snow Light Snow
4:35 AM 26.6 °F 19.1 °F 25.0 °F 94% 29.91 in 3.0 mi North 6.9 mph - N/A Snow Light Snow
4:55 AM 26.1 °F 17.6 °F 24.4 °F 94% 29.90 in 4.0 mi North 8.1 mph - N/A Snow Light Snow
5:15 AM 26.1 °F 19.4 °F 24.4 °F 94% 29.90 in 3.0 mi North 5.8 mph - N/A Snow Light Snow
5:35 AM 25.7 °F 17.1 °F 24.3 °F 94% 29.89 in 5.0 mi North 8.1 mph - N/A   Unknown
5:55 AM 25.5 °F 16.2 °F 23.9 °F 94% 29.89 in 4.0 mi NNW 9.2 mph - N/A Snow Light Snow
6:45 AM 24.8 °F 15.3 °F 23.0 °F 93% 29.92 in 10.0 mi NNW 9.2 mph - N/A   Overcast
7:11 AM 24.8 °F 15.3 °F 23.0 °F 93% 29.91 in 0.8 mi NNW 9.2 mph - N/A Snow Light Snow
7:46 AM 24.8 °F 11.1 °F 23.0 °F 93% 29.91 in 0.2 mi NNW 18.4 mph - N/A Snow Snow
8:45 AM 24.8 °F - 23.0 °F 93% 29.90 in 0.8 mi North - - N/A Snow Light Snow
9:45 AM 21.2 °F - 19.4 °F 93% 29.89 in 0.5 mi North - - N/A Snow Snow
10:45 AM 21.2 °F 6.8 °F 19.4 °F 93% 29.88 in 0.2 mi North 17.3 mph 25.3 mph N/A Snow Heavy Snow
11:50 AM - - - N/A% - 0.2 mi NNW 20.7 mph 34.5 mph N/A   Unknown
12:50 PM 17.6 °F 0.9 °F 14.0 °F 86% 29.88 in 0.2 mi NNW 20.7 mph 31.1 mph N/A Snow Heavy Snow
1:50 PM - - - N/A% 29.90 in 0.2 mi NW 20.7 mph 31.1 mph N/A   Unknown
2:50 PM 14.0 °F -3.9 °F 10.4 °F 86% 29.95 in 0.5 mi NNW 20.7 mph 29.9 mph N/A Snow Snow
3:50 PM 14.0 °F -3.9 °F 10.4 °F 86% 30.00 in 0.8 mi NW 20.7 mph 34.5 mph N/A Snow Light Snow
4:50 PM 12.2 °F -6.3 °F 8.6 °F 85% 30.05 in 0.8 mi NW 20.7 mph 34.5 mph N/A Snow Light Snow
5:50 PM 10.4 °F -8.6 °F 5.0 °F 79% 30.13 in 1.5 mi NNW 20.7 mph 32.2 mph N/A Snow Light Snow
6:50 PM 8.6 °F -11.0 °F -4.0 °F 57% 30.18 in 5.0 mi NNW 20.7 mph 32.2 mph N/A Snow Blowing Snow
7:50 PM 8.6 °F -11.0 °F -7.6 °F 48% 30.22 in 7.0 mi NW 20.7 mph 31.1 mph N/A Snow Blowing Snow
8:50 PM 5.0 °F -15.7 °F -9.4 °F 52% 30.25 in 7.0 mi WNW 20.7 mph 28.8 mph N/A Snow Blowing Snow
9:15 PM 5.2 °F -15.0 °F -8.0 °F 55% 30.27 in 5.0 mi WNW 19.6 mph 34.5 mph N/A   Haze
9:35 PM 4.8 °F -14.9 °F -8.0 °F 56% 30.28 in 7.0 mi WNW 18.4 mph 28.8 mph N/A   Unknown
9:50 PM 5.0 °F -15.7 °F -9.4 °F 52% 30.28 in 7.0 mi WNW 20.7 mph 28.8 mph N/A Snow Blowing Snow
9:55 PM 5.0 °F -16.2 °F -8.3 °F 54% 30.28 in 7.0 mi WNW 21.9 mph 34.5 mph N/A   Unknown
10:15 PM 4.8 °F -16.4 °F -9.0 °F 53% 30.29 in 7.0 mi WNW 21.9 mph 34.5 mph N/A   Unknown
10:35 PM 4.1 °F -17.9 °F -9.0 °F 55% 30.30 in 5.0 mi WNW 23.0 mph 31.1 mph N/A   Haze
10:55 PM 3.2 °F -17.1 °F -10.7 °F 53% 30.31 in 5.0 mi NW 18.4 mph 38.0 mph N/A   Haze
11:15 PM 2.8 °F -16.4 °F -10.7 °F 53% 30.32 in 10.0 mi NW 16.1 mph 24.2 mph N/A   Unknown
11:35 PM 2.3 °F -17.7 °F -11.2 °F 53% 30.32 in 10.0 mi WNW 17.3 mph 25.3 mph N/A   Unknown
11:55 PM 1.6 °F -15.9 °F -11.0 °F 56% 30.31 in 10.0 mi WNW 12.7 mph 20.7 mph N/A   Unknown